Flag for Germany Weather past 2 weeks in Oranienburg, Brandenburg, Germany

Now
65 °F

Scattered clouds.


Feels Like: 65 °F
Forecast: 50 / 68 °F
Wind: 8 mph from Southwest

Location: Berlin-Tegel

Current Time: Sep 2, 2015 at 1:37:31 PM

Latest Report: Sep 2, 2015 at 1:00 PM


Visibility: 25 mi

Pressure: 30.01 "Hg

Humidity: 51%

Dew point: 47 °F

Location of OranienburgLocation

Historic Weather in Oranienburg — Graph

°F

Oranienburg temperature yesterday

Maximum temperature yesterday: 82 °F (at 4:00 PM)
Minimum temperature yesterday: 61 °F (at 11:00 PM)
Average temperature yesterday: 73 °F

Past Weeks' High & Low Weather Summary

 TemperatureHumidityPressure
High94 °F (Aug 31, 5:00 PM)97% (Aug 20, 2:00 AM)30.32 "Hg (Aug 20, 2:00 AM)
Low53 °F (Aug 29, 4:00 AM)19% (Aug 22, 6:00 PM)29.71 "Hg (Aug 24, 11:00 PM)
Average69 °F61%30.02 "Hg
* Reported Aug 18 12:00 Noon — Sep 2 12:00 Noon, Oranienburg, Weather by CustomWeather, © 2015

Note: Actual official high and low records may vary slightly from our data, if they occured in-between our weather recording intervals... More about our weather records

Advertising

Oranienburg weather history for previous 24 hours

 ConditionsComfort  
Time TempWeatherWind HumidityBarometerVisibility
12:00 PM
Wed, Sep 2
63 °FPartly sunny.9 mph58%30.02 "Hg25 mi
11:00 AM63 °FPartly sunny.8 mph65%30.01 "Hg25 mi
10:00 AM61 °FPartly sunny.7 mph79%30.01 "Hg25 mi
9:00 AM57 °FOvercast.6 mph85%30.01 "Hg25 mi
8:00 AM56 °FScattered clouds.7 mph91%29.99 "Hg22 mi
7:00 AM55 °FPartly sunny.5 mph92%29.98 "Hg12 mi
5:00 AM55 °FPassing clouds.5 mph91%29.96 "Hg25 mi
4:00 AM57 °FPassing clouds.5 mph91%29.96 "Hg25 mi
3:00 AM58 °FLow clouds.5 mph90%29.94 "Hg25 mi
2:00 AM60 °FOvercast.6 mph88%29.93 "Hg25 mi
1:00 AM60 °FLow clouds.5 mph89%29.92 "Hg25 mi
11:00 PM
Tue, Sep 1
61 °FLow clouds.7 mph90%29.89 "Hg19 mi
10:00 PM62 °FLow clouds.5 mph93%29.85 "Hg19 mi
9:00 PM62 °FLight rain. Low clouds.5 mph94%29.84 "Hg16 mi
8:00 PM62 °FLight rain. Low clouds.6 mph92%29.82 "Hg19 mi
7:00 PM65 °FThundershowers. Low clouds.6 mph92%29.78 "Hg5 mi
6:00 PM74 °FOvercast.6 mph60%29.74 "Hg16 mi
5:00 PM79 °FPartly sunny.6 mph58%29.72 "Hg19 mi
4:00 PM82 °FPartly sunny.5 mph52%29.72 "Hg19 mi
3:00 PM81 °FScattered clouds.5 mph52%29.73 "Hg19 mi
2:00 PM82 °FPassing clouds.6 mph52%29.74 "Hg19 mi
1:00 PM79 °FScattered clouds.3 mph56%29.74 "Hg19 mi
Weather by CustomWeather, © 2015

See weather overviewHow to use our weather pages